Racine, WI

7:05 AM CST on February 24, 2017 (GMT -0600)
Batten

Weather History for KRAC - February, 2013

Change the Weather History Date:

Thursday, February 14, 2013

  Actual Average Record
Temperature  
Mean Temperature 33 °F -  
Max Temperature 36 °F 33 °F 57 °F (1954)
Min Temperature 28 °F 18 °F -2 °F (1986)
Degree Days  
Heating Degree Days 32    
Moisture  
Dew Point 28 °F    
Average Humidity 79    
Maximum Humidity 93    
Minimum Humidity 69    
Precipitation  
Precipitation 0.00 in - - ()
Sea Level Pressure  
Sea Level Pressure 29.75 in    
Wind  
Wind Speed 9 mph (WSW)    
Max Wind Speed 17 mph    
Max Gust Speed 32 mph    
Visibility 9 miles    
Events Rain    
Averages and records for this station are not official NWS values.
T = Trace of Precipitation, MM = Missing Value Source: NWS Daily Summary

Daily Weather History Graph

Daily Weather History Graph

Search for Another Location

Airport or City:

Trip Planner

Search our weather history database for the weather conditions in past years. The results will help you decide how hot, cold, wet, or windy it might be!

Date:

Astronomy

Feb. 14, 2013 Rise Set
Actual Time 6:49 AM CST 5:22 PM CST
Civil Twilight 6:20 AM CST 5:51 PM CST
Nautical Twilight 5:47 AM CST 6:24 PM CST
Astronomical Twilight 5:14 AM CST 6:57 PM CST
Moon 8:43 AM CST (2/14) 10:33 PM CST (2/14)
Length of Visible Light 11h 30m
Length of Day
10h 32m
Waxing Crescent, 22% of the Moon is Illuminated
Feb 14
Waxing Crescent
Feb 17
First Quarter
Feb 25
Full
Mar 4
Last Quarter
Mar 11
New

Hourly Weather History & Observations

Time (CST) Temp. Windchill Dew Point Humidity Pressure Visibility Wind Dir Wind Speed Gust Speed Precip Events Conditions
12:53 AM 35.1 °F 30.1 °F 30.0 °F 82% 29.72 in 9.0 mi SW 5.8 mph - N/A   Overcast
1:53 AM 35.1 °F 29.3 °F 30.0 °F 82% 29.71 in 8.0 mi SSW 6.9 mph - N/A   Overcast
2:53 AM 35.1 °F 30.1 °F 30.0 °F 82% 29.68 in 8.0 mi South 5.8 mph - N/A   Overcast
3:53 AM 35.1 °F 30.1 °F 30.9 °F 85% 29.65 in 7.0 mi South 5.8 mph - 0.00 in   Overcast
4:53 AM 35.1 °F 27.9 °F 30.9 °F 85% 29.62 in 7.0 mi South 9.2 mph - 0.00 in   Overcast
5:53 AM 36.0 °F 28.5 °F 30.0 °F 79% 29.62 in 10.0 mi SSW 10.4 mph - N/A   Mostly Cloudy
6:53 AM 35.1 °F 27.9 °F 30.0 °F 82% 29.62 in 10.0 mi SW 9.2 mph - N/A   Mostly Cloudy
7:53 AM 36.0 °F 29.0 °F 30.0 °F 79% 29.63 in 10.0 mi WSW 9.2 mph 18.4 mph N/A   Clear
8:53 AM 36.0 °F 28.5 °F 30.9 °F 82% 29.63 in 10.0 mi WSW 10.4 mph - N/A   Overcast
9:00 AM 35.6 °F 28.6 °F 30.2 °F 81% 29.61 in 10.0 mi WSW 9.2 mph - N/A   Overcast
9:53 AM 36.0 °F 29.6 °F 32.0 °F 86% 29.64 in 7.0 mi WSW 8.1 mph 16.1 mph 0.00 in Rain Light Rain
10:53 AM 36.0 °F 27.5 °F 32.0 °F 86% 29.65 in 6.0 mi WSW 12.7 mph 20.7 mph 0.00 in   Overcast
11:00 AM 35.6 °F 28.0 °F 32.0 °F 87% 29.64 in 6.0 mi West 10.4 mph 19.6 mph 0.00 in Rain Light Rain
11:22 AM 35.6 °F 27.5 °F 33.8 °F 93% 29.65 in 6.0 mi WSW 11.5 mph 18.4 mph 0.00 in Rain Light Rain
11:53 AM 36.0 °F 28.0 °F 33.1 °F 89% 29.67 in 10.0 mi WSW 11.5 mph 18.4 mph 0.00 in   Overcast
12:23 PM 35.6 °F 27.1 °F 33.8 °F 93% 29.65 in 10.0 mi West 12.7 mph 19.6 mph 0.00 in   Overcast
12:53 PM 36.0 °F 26.7 °F 30.9 °F 82% 29.68 in 10.0 mi West 15.0 mph 21.9 mph 0.00 in   Overcast
1:53 PM 35.1 °F 24.8 °F 28.0 °F 76% 29.73 in 10.0 mi WNW 17.3 mph 32.2 mph N/A   Overcast
2:53 PM 34.0 °F 23.8 °F 27.0 °F 75% 29.77 in 10.0 mi WNW 16.1 mph 25.3 mph N/A   Overcast
3:53 PM 33.1 °F 23.4 °F 26.1 °F 75% 29.83 in 10.0 mi WNW 13.8 mph 26.5 mph N/A   Overcast
4:39 PM 33.8 °F 24.3 °F 24.8 °F 70% 29.84 in 9.0 mi WNW 13.8 mph 26.5 mph 0.00 in   Overcast
4:53 PM 33.1 °F 24.9 °F 24.1 °F 70% 29.87 in 10.0 mi West 10.4 mph 23.0 mph 0.00 in   Overcast
5:53 PM 32.0 °F 23.0 °F 23.0 °F 69% 29.91 in 10.0 mi WNW 11.5 mph 18.4 mph N/A   Overcast
6:53 PM 30.9 °F 24.3 °F 24.1 °F 76% 29.94 in 10.0 mi WNW 6.9 mph - N/A   Overcast
7:53 PM 30.9 °F 26.2 °F 23.0 °F 72% 29.95 in 10.0 mi West 4.6 mph - N/A   Partly Cloudy
8:53 PM 30.9 °F 23.5 °F 21.9 °F 69% 29.96 in 10.0 mi WNW 8.1 mph - N/A   Partly Cloudy
9:53 PM 30.9 °F 24.3 °F 21.9 °F 69% 29.97 in 10.0 mi WNW 6.9 mph - N/A   Scattered Clouds
10:53 PM 30.0 °F 24.1 °F 21.0 °F 69% 29.98 in 10.0 mi NW 5.8 mph - N/A   Overcast
11:53 PM 28.9 °F 25.2 °F 21.0 °F 72% 29.99 in 10.0 mi West 3.5 mph - N/A   Scattered Clouds